Weather History for Sierra Vista, AZ

Change the Weather History Date:

Tuesday, June 10, 2014

  Actual Average Record
Temperature  
Mean Temperature 82 °F -  
Max Temperature 96 °F 88 °F 102 °F (1985)
Min Temperature 69 °F 66 °F 57 °F (1982)
Cooling Degree Days 18    
Growing Degree Days 32 (Base 50)    
Moisture  
Dew Point 29 °F    
Average Humidity 14    
Maximum Humidity 23    
Minimum Humidity 9    
Precipitation  
Precipitation 0.00 in - - ()
Sea Level Pressure  
Sea Level Pressure 29.79 in    
Wind  
Wind Speed 10 mph (WSW)    
Max Wind Speed 24 mph    
Max Gust Speed 32 mph    
Visibility 10 miles    
Events      
Averages and records for this station are not official NWS values.
T = Trace of Precipitation, MM = Missing Value Source: NWS Daily Summary

Daily Weather History Graph

Daily Weather History Graph

Search for Another Location

Airport:

Trip Planner

Search our weather history database for the weather conditions in past years. The results will help you decide how hot, cold, wet, or windy it might be!

Date:

Astronomy

Jun. 10, 2014 Rise Set
Actual Time 5:15 AM MST 7:26 PM MST
Civil Twilight 4:47 AM MST 7:54 PM MST
Nautical Twilight 4:13 AM MST 8:28 PM MST
Astronomical Twilight 3:37 AM MST 9:05 PM MST
Moon 5:02 PM MST (6/10) 3:14 AM MST (6/10)
Length of Visible Light 15h 06m
Length of Day
14h 10m
Waxing Gibbous, 93% of the Moon is Illuminated
Jun 10
Waxing Gibbous
Jun 12
Full
Jun 19
Last Quarter
Jun 27
New
Jul 5
First Quarter

Hourly Weather History & Observations

Time (MST) Temp. Dew Point Humidity Pressure Visibility Wind Dir Wind Speed Gust Speed Precip Events Conditions
12:55 AM 77.0 °F 19.4 °F 12% 29.77 in 10.0 mi WSW 10.4 mph - N/A   Clear
1:55 AM 80.6 °F 19.4 °F 10% 29.76 in 10.0 mi SW 9.2 mph - N/A   Clear
2:55 AM 75.2 °F 19.4 °F 12% 29.75 in 10.0 mi West 6.9 mph - N/A   Clear
3:55 AM 69.8 °F 21.2 °F 16% 29.77 in 10.0 mi SSW 3.5 mph - N/A   Clear
4:55 AM 71.6 °F 21.2 °F 15% 29.78 in 10.0 mi WSW 8.1 mph - N/A   Partly Cloudy
5:55 AM 75.2 °F 33.8 °F 22% 29.79 in 10.0 mi WSW 10.4 mph - N/A   Partly Cloudy
6:55 AM 80.6 °F 39.2 °F 23% 29.79 in 10.0 mi West 12.7 mph - N/A   Clear
7:55 AM 84.2 °F 39.2 °F 20% 29.82 in 10.0 mi WNW 9.2 mph - N/A   Partly Cloudy
8:55 AM 86.0 °F 35.6 °F 17% 29.83 in 10.0 mi NNW 6.9 mph - N/A   Partly Cloudy
9:55 AM 89.6 °F 32.0 °F 13% 29.82 in 10.0 mi Variable 3.5 mph - N/A   Partly Cloudy
10:55 AM 91.4 °F 32.0 °F 12% 29.81 in 10.0 mi Variable 4.6 mph - N/A   Partly Cloudy
11:55 AM 93.2 °F 30.2 °F 11% 29.80 in 10.0 mi Variable 4.6 mph - N/A   Partly Cloudy
12:55 PM 95.0 °F 39.2 °F 14% 29.78 in 10.0 mi WSW 13.8 mph 19.6 mph N/A   Mostly Cloudy
1:55 PM 93.2 °F 41.0 °F 16% 29.78 in 10.0 mi WSW 13.8 mph 23.0 mph N/A   Mostly Cloudy
2:55 PM 96.8 °F 39.2 °F 14% 29.76 in 10.0 mi SW 18.4 mph 27.6 mph N/A   Scattered Clouds
3:55 PM 96.8 °F 30.2 °F 10% 29.76 in 10.0 mi WSW 20.7 mph 28.8 mph N/A   Partly Cloudy
4:55 PM 95.0 °F 26.6 °F 9% 29.75 in 10.0 mi SW 17.3 mph 29.9 mph N/A   Partly Cloudy
5:55 PM 93.2 °F 26.6 °F 9% 29.75 in 10.0 mi WSW 24.2 mph 32.2 mph N/A   Partly Cloudy
6:55 PM 89.6 °F 24.8 °F 10% 29.77 in 10.0 mi WSW 13.8 mph 24.2 mph N/A   Partly Cloudy
7:55 PM 84.2 °F 23.0 °F 11% 29.78 in 10.0 mi West 10.4 mph - N/A   Partly Cloudy
8:55 PM 82.4 °F 23.0 °F 11% 29.80 in 10.0 mi West 12.7 mph - N/A   Clear
9:55 PM 82.4 °F 26.6 °F 13% 29.82 in 10.0 mi West 12.7 mph - N/A   Clear
10:55 PM 80.6 °F 28.4 °F 15% 29.81 in 10.0 mi West 11.5 mph - N/A   Clear
11:55 PM 78.8 °F 33.8 °F 20% 29.80 in 10.0 mi West 12.7 mph - N/A   Clear